Regional Weather Roundup
Issued by NWS

Home | Current Version | Previous Version | Graphics & Text | Print | Product List | Glossary On
Versions: 1 2 3 4 5 6 7 8 9 10 11 12 13 14 15 16 17 18 19 20 21 22 23 24 25 26 27 28 29 30 31 32 33 34 35 36 37 38 39 40 41 42 43 44 45 46 47 48 49 50
000
ASUS43 KLOT 201510
RWRIL

ILLINOIS REGIONAL WEATHER ROUNDUP
NATIONAL WEATHER SERVICE CHICAGO/ROMEOVILLE IL
900 AM CST SAT DEC 20 2014

NOTE: "FAIR" INDICATES FEW OR NO CLOUDS BELOW 12,000 FEET WITH NO
SIGNIFICANT WEATHER AND/OR OBSTRUCTIONS TO VISIBILITY.

* THESE STATIONS ARE NOT UNDER NWS QUALITY CONTROL. THEY ALSO MAY NOT
  REPORT WEATHER SUCH AS PRECIPITATION OR FOG.

ILZ001-002-007-009-015-016-024-201600-
NORTHWEST ILLINOIS

CITY           SKY/WX    TMP DP  RH WIND       PRES   REMARKS
MOLINE         CLOUDY    31  25  78 E5        30.25R HAZE    WCI  26
STERLING*      CLOUDY    28  25  86 SE3       30.26S
SAVANNA*       CLOUDY    30  26  84 CALM      30.26S FOG
$$

ILZ003-004-008-010-011-017-018-201600-
NORTH CENTRAL ILLINOIS

CITY           SKY/WX    TMP DP  RH WIND       PRES   REMARKS
ROCKFORD       CLOUDY    28  24  85 SE3       30.28S
FREEPORT*      CLOUDY    27  24  89 SE6       30.27S FOG     WCI  20
ROCHELLE*      CLOUDY    27  25  92 CALM      30.27S FOG
DE KALB*       CLOUDY    26  23  91 CALM      30.27R FOG
PERU*          CLOUDY    30  26  85 SE5       30.28R WCI  25
$$

ILZ005-006-012>014-019>023-201600-
NORTHEAST ILLINOIS

CITY           SKY/WX    TMP DP  RH WIND       PRES   REMARKS
CHICAGO-OHARE  CLOUDY    30  23  75 SW3       30.27S
CHICAGO-MIDWAY CLOUDY    32  26  78 S5        30.29R WCI  27
AURORA         CLOUDY    29  23  78 CALM      30.28S HAZE
LANSING*       CLOUDY    30  27  88 S5        30.30R FOG     WCI  25
JOLIET*        CLOUDY    29  24  81 CALM      30.29S
WAUKEGAN       CLOUDY    28  22  78 CALM      30.27S
DUPAGE AIRPORT CLOUDY    29  23  78 CALM      30.27S
KANKAKEE*      CLOUDY    30  27  90 CALM      30.29F FOG
WHEELING       CLOUDY    30  23  75 CALM      30.29S
MORRIS*        CLOUDY    29  27  92 CALM      30.28R FOG
ROMEOVILLE*    CLOUDY    30  25  84 CALM      30.28S
NORTHERLY ISL    N/A     32  25  76 S5          N/A  WCI  27
$$

LMZ740>746-201600-
SOUTHERN LAKE MICHIGAN

STATION/POSITION SKY/WX   TEMP    WIND        PRES    VSBY  WAVE
                          AIR SEA DIR/SP/G                  HT/PER
                          (F)     (DEG/KT/KT) (MB)    (MI)  (FT/S)
WAUKEGAN HARBOR            28        CALM       N/A
HARRISON CRIB              31     190/  9/ 10   N/A
BURNHAM HARBOR             32     230/  2/  6   N/A
CALUMET HARBOR             31     200/  4/  6 1024.4R
$$

ILZ025>027-034>036-040-047-049-050-058-095>099-201600-
WEST-CENTRAL ILLINOIS

CITY           SKY/WX    TMP DP  RH WIND       PRES   REMARKS
QUINCY         CLOUDY    33  29  85 S7        30.24R FOG     WCI  27
GALESBURG*     CLOUDY    30  27  89 SE5       30.24S FOG     WCI  25
MACOMB*        CLOUDY    31  28  90 SE7       30.27R FOG     WCI  24
JACKSONVILLE*  CLOUDY    35  29  80 SE5       30.27R WCI  31
PITTSFIELD*    CLOUDY    33  30  88 S6        30.26R FOG     WCI  28
$$

ILZ028>032-037-038-041>044-048-051>054-059>061-201600-
CENTRAL ILLINOIS

CITY           SKY/WX    TMP DP  RH WIND       PRES   REMARKS
PONTIAC        CLOUDY    30  28  92 SE5       30.30R FOG     WCI  25
BLOOMINGTON    PTSUNNY   29  27  92 S7        30.28R FOG     WCI  22
DECATUR        CLOUDY    31  27  85 SE6       30.29R WCI  25
PEORIA         CLOUDY    31  26  82 S3        30.27R HAZE
LACON*         CLOUDY    29  25  84 CALM      30.27R FOG
LINCOLN*       CLOUDY    32  29  90 S5        30.30R WCI  27
SPRINGFIELD    CLOUDY    33  27  78 SE5       30.29R WCI  29
TAYLORVILLE    CLOUDY    32  28  86 SE6       30.29R FOG     WCI  26
$$

ILZ033-039-045-046-055>057-062-063-201600-
EAST-CENTRAL ILLINOIS

CITY           SKY/WX    TMP DP  RH WIND       PRES   REMARKS
CHAMPAIGN      CLOUDY    30  27  88 SE7       30.29S FOG     WCI  23
DANVILLE*      CLOUDY    30  28  89 CALM      30.27S FOG
RANTOUL*       CLOUDY    31  28  90 SE5       30.29S FOG     WCI  26
MATTOON        CLOUDY    30  26  85 S6        30.29R WCI  24
PARIS*         CLOUDY    31  29  90 CALM      30.31R
$$

ILZ079-100>102-201600-
SOUTHWEST ILLINOIS

CITY           SKY/WX    TMP DP  RH WIND       PRES   REMARKS
BELLEVILLE     CLOUDY    35  31  87 SE6       30.29R WCI  29
CAHOKIA*       CLOUDY    36  30  79 S6        30.29R WCI  31
SPARTA*        CLOUDY    33  29  85 CALM      30.30R
$$

ILZ064>066-069>071-074>076-080>082-084>086-088>090-092>094-201600-
SOUTH-CENTRAL ILLINOIS

CITY           SKY/WX    TMP DP  RH WIND       PRES   REMARKS
CARBONDALE     CLOUDY    34  28  79 SE3       30.31R
CAIRO*         CLOUDY    38  31  75 E3        30.31R
EFFINGHAM*     CLOUDY    32  26  77 E5        30.32R WCI  27
MARION         CLOUDY    36  30  80 S7        30.31R WCI  30
MT. VERNON     CLOUDY    34  27  75 E3        30.31S
CENTRALIA*     CLOUDY    33  28  83 CALM      30.30S
SALEM*         CLOUDY    34  29  83 CALM      30.31R HAZE
METROPOLIS*    CLOUDY    35  29  79 CALM      30.29S
$$

ILZ067-068-072-073-078-083-087-091-201600-
SOUTHEAST ILLINOIS

CITY           SKY/WX    TMP DP  RH WIND       PRES   REMARKS
LAWRENCEVILLE  CLOUDY    31  27  85 CALM      30.32R
FLORA*         SUNNY     32  28  84 S3        30.32R
FAIRFIELD*     CLOUDY    32  29  87 CALM      30.31R
HARRISBURG*    CLOUDY    33  30  86 E3        30.32S
ROBINSON*      CLOUDY    31  29  90 SE5       30.33R WCI  27
CARMI*         CLOUDY    34  30  85 CALM      30.32R
$$

ABBREVIATIONS USED IN REMARKS
   TC - TEMPERATURE IN CELSIUS
  WCI - WIND CHILL INDEX
   HX - HEAT INDEX
  VSB - VISIBILITY
$$




USA.gov is the U.S. government's official web portal to all federal, state and local government web resources and services.